Powrót do katalogu

STARLINK-11688

AktywnyŁącznośćVLEO
NORAD 63756·PAYLOAD·🇺🇸 United States

Wystrzelony Apr 29, 2025 z Cape Canaveral Space Force Station

Loading…

Następne Przeloty (najbliższe 24 godziny)

TLE

ŚwieżeSource: CelesTrak SupGP

Epoka: Sep 14, 2026, 21:03 UTC

1 63756C 25089F   26257.87756944  .00048512  00000+0  37702-3 0  2571
2 63756  43.0005 231.8928 0001591 257.7355 320.4276 15.70800213    16

Śledź STARLINK-11688 w czasie rzeczywistym z AllMySat

Download on the App Store